[[{"header":{"parameterUnit":"m.s-1","parameterCategory":1,"la1":30.2991,"la2":30.254,"lo1":-89.0895,"lo2":-89.0444,"dy":0.0017,"dx":0.0017,"nx":28,"ny":28,"refTime":"2024-08-02T21:00:00:Z","depth":0,"parameterNumber":2,"parameterNumberName":"U-component_of_WINDS"},"data":[0,0,0,0,0,0,0,0,0,0,0,0,0,0,0,0,0,0,0,0,0,0,0,0,0,0,0,0,0,0,0,0,0,0,0,0,0,0,0,0,0,0,0,0,0,0,0,0,0,0,0,0,0,0,0,0,0,0,3.0702,3.0703,0,3.0805,3.0806,3.0807,3.0762,3.076,3.0757,3.0755,3.0858,3.0863,3.0868,0,0,0,0,0,0,0,0,0,0,0,0,0,3.0461,3.0466,3.0702,3.0703,3.0704,3.0805,3.0806,3.0808,3.0763,3.0759,3.0756,3.0754,3.0857,3.0863,3.0869,0,0,0,0,0,0,0,0,0,0,0,0,0,3.0565,3.0468,3.0701,3.0694,3.0694,3.0805,3.0806,3.0808,3.0763,3.0759,3.0756,3.0752,3.0855,3.0862,3.087,3.0993,0,0,3.0893,3.0896,0,0,0,0,0,0,0,0,3.056,3.0574,3.0694,3.0695,3.0695,3.0767,3.076,3.087,3.0764,3.0737,3.0755,3.075,3.0831,3.084,3.0868,3.0998,3.1002,3.0894,3.0898,3.0902,3.0904,0,0,0,0,0,0,0,3.0552,3.0569,3.0742,3.0695,3.0696,3.0684,3.0695,3.078,3.0804,3.0739,3.0736,3.0749,3.083,3.0861,3.087,3.1004,3.0894,3.09,3.0905,3.0908,3.1237,3.1241,0,0,0,0,0,0,3.0546,3.0564,3.0739,3.0746,3.0617,3.0692,3.0703,3.0748,3.0803,3.0808,3.0752,3.0746,3.0849,3.0861,3.0873,3.102,3.0902,3.0909,3.0913,3.1233,3.1238,3.1243,0,0,0,0,0,0,3.0541,3.0562,3.0735,3.0654,3.0675,3.07,3.075,3.0752,3.0782,3.0813,3.0816,3.0779,3.0847,3.0863,3.0963,3.1023,3.0912,3.0919,3.1228,3.1235,3.124,3.1315,0,0,0,0,0,0,3.0534,3.056,3.0608,3.0655,3.068,3.0824,3.0754,3.0756,3.0795,3.0789,3.0839,3.0843,3.0845,3.0952,3.0971,3.1031,3.0925,3.1223,3.1231,3.1238,3.1307,3.1323,3.1336,0,0,0,0,0,3.0526,3.0625,3.0611,3.0632,3.074,3.0828,3.0842,3.0842,3.08,3.0848,3.0868,3.0842,3.1013,3.0963,3.0983,3.1047,3.1219,3.1229,3.1238,3.13,3.1319,3.1336,0,0,0,0,0,0,3.0584,3.0631,3.0616,3.0734,3.0777,3.082,3.0881,3.0863,3.0919,3.091,3.0908,3.0919,3.1023,3.1045,3.0988,3.1168,3.111,3.1124,3.115,3.1168,3.1183,3.1175,3.0932,0,0,0,0,0,3.0611,3.0679,3.0716,3.0816,3.0839,3.0856,3.0894,3.0891,3.0935,3.0953,3.098,3.1024,3.1087,3.1129,3.1189,3.131,3.1319,3.1364,3.1378,3.139,3.1402,3.1465,3.1485,3.1273,3.1273,3.1273,0,0,3.0666,3.07,3.0744,3.0829,3.0862,3.0931,3.0872,3.0948,3.0999,3.0965,3.1061,3.1082,3.113,3.1241,3.1291,3.1262,3.1462,3.1402,3.1411,3.1417,3.1477,3.1497,3.1515,3.1279,3.1278,3.1277,0,0,3.0803,3.0837,3.0923,3.0957,3.1008,3.1019,3.104,3.1085,3.1098,3.1195,3.117,3.1229,3.134,3.1374,3.1406,3.1554,3.1532,3.1574,3.165,3.1711,3.1728,3.1743,3.1794,3.1813,3.1586,3.1586,3.1586,0,3.0866,3.097,3.097,3.1048,3.1085,3.1057,3.1144,3.1177,3.1245,3.1271,3.1238,3.1374,3.1404,3.1522,3.1558,3.1585,3.1607,3.1568,3.1726,3.1741,3.1754,3.1803,3.1823,3.1591,3.159,3.159,3.1589,0,3.1044,3.1117,3.118,3.1247,3.1291,3.1373,3.1383,3.1428,3.1421,3.1434,3.1532,3.1567,3.1633,3.1661,3.1654,3.1777,3.1758,3.1726,3.1667,3.1779,3.1825,3.1844,3.1597,3.1596,3.1594,3.1593,0,0,3.1221,3.1285,3.1309,3.1338,3.1391,3.1447,3.1527,3.1592,3.1629,3.1677,3.1742,3.1835,3.1805,3.1842,3.1838,3.1893,3.2006,3.1854,3.1855,3.188,3.2141,3.2165,3.2186,3.1991,3.1995,3.1998,3.2137,0,3.1361,3.1502,3.1503,3.1632,3.1698,3.1672,3.1741,3.1781,3.1795,3.1852,3.1867,3.1932,3.1889,3.191,3.1963,3.1981,3.2058,3.1971,3.2051,3.2054,3.2039,3.2211,3.2236,3.2366,3.2155,3.2158,3.216,0,3.1544,3.1597,3.1733,3.1775,3.1803,3.1866,3.1924,3.198,3.2023,3.2029,3.2069,3.2057,3.2136,3.2075,3.2183,3.2124,3.2157,3.217,3.2175,3.2182,3.2114,3.2221,3.2407,3.2426,3.2189,3.2186,3.2184,0,3.1658,3.1764,3.1858,3.1884,3.1936,3.198,3.2004,3.2044,3.2082,3.2133,3.2157,3.2217,3.2249,3.2294,3.2298,3.2253,3.2406,3.2346,3.2413,3.2413,3.2446,3.2444,3.2639,3.2468,3.2468,3.2468,3.2467,0,3.1814,3.1898,3.191,3.1969,3.2061,3.206,3.2151,3.2171,3.2206,3.2266,3.2247,3.2303,3.2305,3.2362,3.2365,3.2453,3.2468,3.2475,3.2474,3.2476,3.2475,3.2497,3.2488,3.2473,3.2472,3.2471,3.247,0,3.1958,3.197,3.2071,3.2111,3.2123,3.219,3.2224,3.2278,3.229,3.2366,3.2384,3.2402,3.2469,3.2477,3.2554,3.2556,3.2662,3.2653,3.2648,3.2646,3.2712,3.2705,3.2927,3.2956,3.2767,3.2769,3.2771,0,3.2056,3.212,3.2168,3.2207,3.2233,3.2297,3.2335,3.2336,3.2377,3.2431,3.2478,3.2543,3.2594,3.2701,3.2721,3.2779,3.277,3.2844,3.2779,3.2778,3.277,3.2766,3.2772,3.2857,3.2859,3.286,3.2862,0,3.223,3.2232,3.229,3.2349,3.2396,3.2443,3.2486,3.2519,3.2525,3.2572,3.264,3.268,3.2759,3.2822,3.288,3.2902,3.2883,3.2882,3.29,3.2903,3.2897,3.29,3.2681,3.2877,3.2875,3.2874,3.2873,3.2873,3.2353,3.2408,3.245,3.2514,3.2547,3.2588,3.2641,3.2659,3.2716,3.278,3.2777,3.2851,3.289,3.2965,3.2992,3.3049,3.3024,3.3051,3.3058,3.3064,3.3071,3.2888,3.3059,3.3059,3.3059,3.3058,3.3058,0,3.2524,3.255,3.2609,3.2671,3.2721,3.2698,3.2745,3.2788,3.2854,3.2893,3.2944,3.3021,3.3082,3.3105,3.3165,3.3206,3.3198,3.3221,3.3218,3.3223,3.309,3.3068,3.3226,3.3226,3.3226,3.3226,3.3226,3.3226,3.262,3.2711,3.2718,3.2825,3.2849,3.2922,3.295,3.2987,3.3018,3.3105,3.3156,3.3171,3.3203,3.3264,3.3319,3.3324,3.3346,3.3373,3.3374,3.3249,3.3232,3.3216,3.3195,3.3378,3.3378,3.3502,3.3504,3.3504]},{"header":{"parameterUnit":"m.s-1","parameterCategory":1,"la1":30.2991,"la2":30.254,"lo1":-89.0895,"lo2":-89.0444,"dy":0.0017,"dx":0.0017,"nx":28,"ny":28,"refTime":"2024-08-02T21:00:00:Z","depth":0,"parameterNumber":3,"parameterNumberName":"V-component_of_WINDS"},"data":[0,0,0,0,0,0,0,0,0,0,0,0,0,0,0,0,0,0,0,0,0,0,0,0,0,0,0,0,0,0,0,0,0,0,0,0,0,0,0,0,0,0,0,0,0,0,0,0,0,0,0,0,0,0,0,0,0,0,5.6083,5.6085,0,5.6229,5.6231,5.6233,5.62,5.6198,5.6195,5.6192,5.6334,5.634,5.6346,0,0,0,0,0,0,0,0,0,0,0,0,0,5.5765,5.5771,5.6083,5.6085,5.6087,5.6229,5.6231,5.6233,5.6201,5.6198,5.6194,5.6191,5.6332,5.6339,5.6347,0,0,0,0,0,0,0,0,0,0,0,0,0,5.5906,5.5773,5.6082,5.6088,5.609,5.6229,5.6231,5.6234,5.6202,5.6198,5.6193,5.619,5.6329,5.6338,5.6348,5.6488,0,0,5.6377,5.6381,0,0,0,0,0,0,0,0,5.5898,5.5918,5.6085,5.6088,5.609,5.6193,5.6171,5.6318,5.6203,5.6159,5.6192,5.6188,5.629,5.6302,5.6338,5.6494,5.65,5.6377,5.6383,5.6387,5.639,0,0,0,0,0,0,0,5.5888,5.5911,5.614,5.6088,5.6091,5.6079,5.6095,5.6198,5.6245,5.6162,5.616,5.6179,5.629,5.6329,5.6341,5.6502,5.6377,5.6386,5.6391,5.6395,5.6777,5.6781,0,0,0,0,0,0,5.5878,5.5903,5.6136,5.6145,5.5982,5.6088,5.6106,5.6164,5.6244,5.6252,5.6182,5.6177,5.6315,5.633,5.6346,5.6513,5.6387,5.6396,5.6401,5.6772,5.6778,5.6782,0,0,0,0,0,0,5.5871,5.5899,5.613,5.6024,5.6052,5.6098,5.6163,5.6169,5.6208,5.6259,5.6266,5.6214,5.6312,5.6333,5.6452,5.6518,5.64,5.6409,5.6767,5.6774,5.678,5.685,0,0,0,0,0,0,5.5862,5.5897,5.5953,5.6025,5.6058,5.6238,5.6168,5.6175,5.6225,5.622,5.6291,5.6299,5.6311,5.6439,5.6462,5.6529,5.6416,5.6761,5.677,5.6778,5.6842,5.6858,5.6872,0,0,0,0,0,5.5851,5.5966,5.5956,5.5984,5.613,5.6241,5.626,5.6274,5.6231,5.6286,5.6318,5.6296,5.6507,5.6451,5.6477,5.6548,5.6757,5.6768,5.6777,5.6835,5.6855,5.6872,0,0,0,0,0,0,5.5897,5.5975,5.5966,5.6108,5.6169,5.6236,5.6306,5.6295,5.6367,5.6358,5.637,5.6386,5.6507,5.6539,5.6476,5.6685,5.6625,5.6641,5.6661,5.668,5.6695,5.6684,5.6424,0,0,0,0,0,5.5925,5.6012,5.6074,5.6193,5.6224,5.626,5.6309,5.6315,5.6377,5.6401,5.6442,5.6501,5.6579,5.6631,5.6707,5.6846,5.6859,5.6907,5.6922,5.6934,5.6947,5.702,5.7041,5.6816,5.6815,5.6815,0,0,5.5981,5.6034,5.6088,5.6204,5.6252,5.6338,5.6282,5.6376,5.6439,5.6415,5.6531,5.6563,5.6628,5.6758,5.6817,5.6788,5.7013,5.6947,5.6956,5.6963,5.7033,5.7054,5.7073,5.6822,5.6821,5.682,0,0,5.6128,5.6179,5.6283,5.6332,5.6405,5.6428,5.6453,5.6522,5.6542,5.666,5.6642,5.6715,5.6852,5.6899,5.694,5.7102,5.7084,5.7126,5.7204,5.7275,5.7293,5.7309,5.7364,5.7384,5.7139,5.7139,5.7139,0,5.6188,5.6322,5.6337,5.6433,5.6483,5.6466,5.6569,5.6615,5.6708,5.6741,5.6708,5.6878,5.6921,5.706,5.7099,5.7134,5.716,5.7118,5.729,5.7306,5.7321,5.7374,5.7395,5.7144,5.7143,5.7143,5.7142,0,5.639,5.6483,5.6557,5.665,5.6708,5.6807,5.6834,5.689,5.6889,5.6914,5.7031,5.7082,5.7167,5.72,5.72,5.7338,5.7318,5.7287,5.7227,5.7347,5.7396,5.7417,5.715,5.7149,5.7147,5.7146,0,0,5.6573,5.6672,5.6699,5.674,5.6818,5.6888,5.6984,5.7069,5.7116,5.718,5.7258,5.7373,5.7345,5.7392,5.7397,5.7459,5.7581,5.7421,5.7422,5.7447,5.7733,5.7755,5.7778,5.7569,5.7573,5.7576,5.7727,0,5.6726,5.69,5.6915,5.7069,5.7152,5.7136,5.7219,5.7275,5.73,5.7371,5.7396,5.7477,5.7435,5.7463,5.7524,5.7554,5.7638,5.7543,5.7639,5.7643,5.7623,5.7805,5.7829,5.7969,5.7747,5.775,5.7752,0,5.6929,5.7001,5.7164,5.7229,5.7264,5.734,5.7417,5.7487,5.7547,5.756,5.7612,5.7607,5.7702,5.7639,5.7767,5.7702,5.7742,5.7761,5.7767,5.7776,5.7705,5.7817,5.8014,5.8034,5.7784,5.7781,5.7779,0,5.7043,5.718,5.7295,5.7331,5.741,5.7462,5.7497,5.7554,5.7603,5.7669,5.7701,5.7776,5.7817,5.7874,5.7888,5.7841,5.8016,5.7954,5.8027,5.8026,5.8064,5.8061,5.8269,5.8092,5.8091,5.8091,5.809,0,5.7212,5.7312,5.7348,5.7418,5.7528,5.7543,5.765,5.7681,5.7731,5.7804,5.7794,5.7862,5.7878,5.7948,5.7959,5.8062,5.8081,5.8092,5.8093,5.8093,5.8091,5.8118,5.8109,5.8096,5.8095,5.8094,5.8093,0,5.7359,5.7387,5.7511,5.7576,5.7594,5.7672,5.7725,5.7791,5.7814,5.7907,5.7929,5.7964,5.8046,5.8066,5.8162,5.817,5.8291,5.8284,5.8272,5.8271,5.8342,5.8334,5.8573,5.8604,5.8408,5.841,5.8411,0,5.7465,5.7541,5.7614,5.7664,5.7702,5.7782,5.7832,5.7848,5.79,5.7973,5.8029,5.811,5.8176,5.8306,5.8338,5.8411,5.8405,5.8483,5.8415,5.8411,5.8404,5.8399,5.8405,5.8496,5.8498,5.85,5.8501,0,5.7649,5.7658,5.7734,5.7813,5.7874,5.7936,5.7996,5.8036,5.8059,5.8117,5.8202,5.8253,5.8352,5.8431,5.8505,5.8536,5.8521,5.8522,5.8543,5.8542,5.8531,5.8536,5.8306,5.8517,5.8515,5.8514,5.8513,5.8512,5.7777,5.7844,5.7906,5.7988,5.8035,5.809,5.8155,5.8186,5.8258,5.8342,5.8345,5.8437,5.8491,5.8588,5.8624,5.8693,5.8668,5.8698,5.8706,5.8713,5.8718,5.8521,5.8706,5.8706,5.8705,5.8705,5.8705,0,5.7959,5.7998,5.8074,5.8159,5.8223,5.8206,5.827,5.8323,5.8405,5.8459,5.8524,5.8619,5.8695,5.8733,5.8807,5.8855,5.885,5.8874,5.887,5.8876,5.8737,5.8711,5.8876,5.8876,5.8876,5.8876,5.8876,5.8876,5.8062,5.8173,5.819,5.8322,5.8359,5.8451,5.8489,5.8538,5.8581,5.8689,5.8753,5.8778,5.8823,5.8901,5.8968,5.8977,5.9004,5.9031,5.9036,5.8904,5.8887,5.887,5.8846,5.9037,5.9037,5.917,5.9171,5.9172]}]]